Regional Weather Roundup
Issued by NWS Wakefield, VA

Home | Current Version | Previous Version | Text Only | Print | Product List | Glossary On
Versions: 1 2 3 4 5 6 7 8 9 10 11 12 13 14 15 16 17 18 19 20 21 22 23 24 25 26 27
000
ASUS41 KAKQ 171515
RWRAKQ

REGIONAL WEATHER ROUNDUP
NATIONAL WEATHER SERVICE WAKEFIELD VA
1100 AM EDT THU AUG 17 2017

Note: "fair" indicates few or no clouds below 12,000 feet with no
significant weather and/or obstructions to visibility. * = Denotes
station may not report precipitation (e.g., rain,snow,etc.),
thunder or fog.

VAZ042-051-052>054-056-171600-
NORTHERN VIRGINIA

CITY           SKY/WX    TMP DP  RH WIND       PRES   REMARKS
WASH NATIONAL  MOSUNNY   84  75  74 S8        30.02F
DULLES         PTSUNNY   82  75  79 SW3       30.03F
FORT BELVOIR   MOSUNNY   83  74  73 SE5       30.02S
QUANTICO       PTSUNNY   82  77  84 S9        30.02F
FREDERICKSBRG* MOSUNNY   84  75  74 S3        30.01F
STAFFORD*      MOSUNNY   83  77  83 CALM      30.06F
WARRENTON      MOSUNNY   84  73  67 S6        30.02F
CULPEPER*      MOSUNNY   83  76  78 SW5       30.03F
MANASSAS*      SUNNY     83  75  77 S6        30.03F
LEESBURG*      SUNNY     82  73  74 CALM      30.04F
WINCHESTER     SUNNY     79  70  73 CALM      30.04F
FRONT ROYAL*   MOSUNNY   79  72  78 CALM      30.04S
LURAY*         PTSUNNY   81  72  74 CALM      30.04F
$$

VAZ048-049-060>072-079>083-171600-
CENTRAL AND SOUTH CENTRAL VIRGINIA

CITY           SKY/WX    TMP DP  RH WIND       PRES   REMARKS
RICHMOND       MOSUNNY   84  75  74 S9        30.04S
CHESTERFIELD*  FAIR      86  75  69 VRB7      30.05S HX  95
PETERSBURG*    PTSUNNY   83  75  77 CALM      30.05F
HANOVER        SUNNY     85  71  63 VRB5      30.04F
TAPPAHANNOCK*  SUNNY     85  72  64 SE6       30.05S
QUINTON*       FAIR      83  76  79 SE6       30.04S
CHARLOTTSVILLE MOSUNNY   83  73  72 CALM      30.04F
GORDONSVILLE*  CLOUDY    82  75  79 SW5       30.03S
ORANGE*        SUNNY     82  73  74 SW3       30.03F
LOUISA*        MOSUNNY   82  73  74 CALM      30.04S
BUMPASS*       FAIR      84  75  73 SW6       30.04S
FARMVILLE*     PTSUNNY   82  71  68 SE3       30.04S HAZE
CREWE*         CLOUDY    79  75  86 S3        30.05S
FORT PICKETT*  CLOUDY   N/A N/A N/A SW9       30.07R
CHASE CITY*    CLOUDY    76  76  99 CALM      30.07R
CLARKSVILLE*   CLOUDY    77  77 100 CALM      30.05S
SOUTH HILL*    CLOUDY    79  76  90 SE5       30.11S
LAWRENCEVILLE* CLOUDY    80  76  86 S3        30.05S
EMPORIA*       CLOUDY    81  77  89 SE6       30.06F
$$

VAZ088>098-171600-
SOUTHEAST VIRGINIA

CITY           SKY/WX    TMP DP  RH WIND       PRES   REMARKS
NORFOLK        SUNNY     87  69  54 VRB6      30.05S
VIRGINIA BEACH MOSUNNY   85  71  63 VRB5      30.05R
NORFOLK NAVAL  MOSUNNY   87  67  51 SW5       30.07R
WEST POINT*    MOSUNNY   83  74  74 S5        30.06S
SALUDA*        PTSUNNY   82  78  86 E7        30.06R
NEWPORT NEWS   SUNNY     85  73  67 SW7       30.05S
LANGLEY AFB    NOT AVBL
FORT EUSTIS    NOT AVBL
WILLIAMSBURG*  SUNNY     88  75  66 CALM      30.06S HX  97
HR EXEC AP*    FAIR      86  72  62 SE5       30.03S
FRANKLIN*      SUNNY     84  71  63 SE8       30.06S
US460-WAKEFLD  SUNNY     85  75  72 VRB7      30.05S
$$

VAZ020-022-025-037-045-171600-
WEST CENTRAL AND SOUTHWEST VIRGINIA

CITY           SKY/WX    TMP DP  RH WIND       PRES   REMARKS
STAUNTON*      MOSUNNY   78  70  74 SW3       30.08F
WAYNESBORO*    MOSUNNY   81  72  74 SW3       30.08F
HOT SPRINGS VA CLOUDY    72  64  78 W9        30.21F
LYNCHBURG      MOSUNNY   84  70  62 W5        30.07S
DANVILLE       SUNNY     84  76  76 CALM      30.05F
SOUTH BOSTON*  FAIR      84  75  75 S3        30.05S
MARTINSVILLE   SUNNY     86  73  65 S5        30.09S
ROANOKE        MOSUNNY   85  71  63 W6        30.08F
BLACKSBURG     SUNNY     80  72  76 CALM      30.15F
DUBLIN*        PTSUNNY   81  71  72 SW5       30.14F
MARION*        PTSUNNY   79  68  69 W13       30.18S
HILLSVILLE*    SUNNY     76  67  72 CALM      30.16F
RICHLANDS*     CLOUDY    75  68  77 W7        30.17S
WISE*          CLOUDY    73  73 100 SW10      30.17S
ABINGDON*      CLOUDY    78  74  86 W6        30.15R
$$

MDZ021>025-VAZ099-100-171600-
SOUTHERN MARYLAND AND THE DELMARVA PENINSULA

CITY           SKY/WX    TMP DP  RH WIND       PRES   REMARKS
PATUXENT RIVER CLOUDY    82  76  81 SW5       30.03F
BAY BRIDGE APT PTSUNNY   84  73  70 SE8       30.03S
LEONARDTOWN    MOSUNNY   82  72  69 SW7       30.05S
DOVER          MOSUNNY   82  70  65 E6        30.02F
GEORGETOWN     CLOUDY    81  73  76 SW7       30.05S
EASTON         MOSUNNY   86  72  62 S5        30.07S
CAMBRIDGE      MOSUNNY   82  73  74 SE7       30.04S
SALISBURY      CLOUDY    78  74  87 CALM      30.05S
OCEAN CITY     LGT RAIN  76  73  91 SW6       30.07R
WALLOPS ISLAND CLOUDY    76  74  93 NW6       30.07R
ACCOMACK*      CLOUDY    81  74  81 W3        30.07R
$$

NCZ012>017-030>032-171600-
NORTH CENTRAL AND EASTERN NORTH CAROLINA

CITY           SKY/WX    TMP DP  RH WIND       PRES   REMARKS
ROANOKE RAPIDS   N/A     79  77  94 S5        30.06R
RALEIGH        MOSUNNY   89  76  65 S9        30.05F HX 100
ELIZABETH CITY SUNNY     85  74  69 CALM      30.06S
AHOSKIE*         N/A     83  76  80 S3        30.06R
EDENTON*       SUNNY     85  76  76 CALM      30.07S
CURRITUCK*     SUNNY     84  39  20 CALM      30.07R
KILL DEVIL HLS SUNNY     81  71  71 CALM      30.06R
MANTEO         SUNNY     82  72  73 E5        30.07S
CAPE HATTERAS  SUNNY     84  75  74 VRB5      30.06S
TARBORO*       NOT AVBL
GOLDSBORO      MOSUNNY   87  80  79 S6        30.04F HX 103
WASHINGTON     MOSUNNY   86  76  72 SE6       30.06S HX  96
GREENVILLE     MOSUNNY   88  77  70 S6        30.07S HX 100
NEW BERN       MOSUNNY   86  76  71 CALM      30.07S HX  96
WILMINGTON     PTSUNNY   87  79  76 SE8       30.05S HX 101
$$

VAZ048-171600-
ELSEWHERE

CITY           SKY/WX    TMP DP  RH WIND       PRES   REMARKS
HARRISBURG PA  PTSUNNY   80  68  66 S5        30.03F
BALTIMORE      PTSUNNY   82  76  81 E7        30.02F
ANNAPOLIS      SUNNY     82  76  81 SE9       30.02F
ANDREWS AFB    SUNNY     83  72  70 S5        30.02F
PHILADELPHIA   MOSUNNY   82  62  50 E5        30.05F
HENDERSON NC   MOSUNNY   82  73  74 SW8       30.06S
GREENSBORO     MOSUNNY   86  76  71 W6        30.07S HX  96
ROCKY MOUNT    MOSUNNY   84  78  82 S6        30.06S HX  95
$$

VAZ100-171600-
MARINE

STATION/POSITION TIME  TEMP    WIND        PRES    WAVE   SWELL
                       AIR SEA DIR/SP/G            HT/PER HT/PER
                 (UTC) (F)     (DEG/KT/KT) (MB)    (FT/S) (FT/S)
BRANDYWINE LGT   1442   77     180/  5/  5 1017.8F
CAPE MAY NJ      1442   80 78  110/  5/  7 1016.9S
LEWES DE         1442   80 77  130/  3/  4 1017.2S
15NM E FENWICK I 1450   77 78  200/  4/  4 1018.1S   2/ 8   2/ 8
OCEAN-CITY-INLET 1442   78 79  260/  6/  7 1018.2R
WACHAPREAGUE VA  1442   82 82  240/  3/  4 1017.9R
THOMAS POINT MD  1500   79 80  170/  8/  9   N/A
GOOSES REEF MD   1440   79     190/  6/  8 1017.7S
COVE POINT MD    1442   78     190/  7/  8 1017.7F
SOLOMONS ISLAND  1442   81 81  170/  2/  2   N/A
BISHOPS HEAD MD  1442   78 82  150/  3/  4 1017.6R
PINEY POINT MD   1442          190/  8/  9   N/A
POTOMAC MD       1440   78     120/  2/  4 1016.7F
CAMBRIDGE MD     1442   84 81              1017.8F
LEWISETTA VA     1442   79 82  120/  6/  6 1017.2F
RAPPAHANNOCK LGT 1442          240/  2/  3 1018.7R
STINGRAY PT      1440   80      50/  8/ 10 1018.1R
YORK RVR RNG VA  1442   81     150/  4/  4 1018.1R
YORKTOWN VA      1442   83 81   70/  3/  5 1017.3R
JAMESTOWN VA     1440           CALM  /  4   N/A
DOMINION TERM VA 1442   81      CALM  /  2 1017.9R
KIPTOPEKE VA     1442      79  220/  4/  6   N/A
CHES BAY BRIDGE  1442   79 80   90/  4/  4 1017.7R
CAPE HENRY VA    1442   80     110/  8/ 10   N/A
WILLOUBY STN VA  1442   81     280/  4/  5 1017.8R
S CRANEY ISL VA  1442   84     160/  3/  4 1017.5R
CAPE HENRY BUOY  1500      79                N/A     2/ 8
1ST LANDING BUOY 1440   79                 1017.7R
64NM E OF VA BCH 1450   77 78   80/  4/  6 1018.6R   2/ 8   2/ 8
DUCK PIER NC     1442   81 79  100/  5/  6 1017.8R
44100 DUCK FRF   1405      79                N/A     2/ 8
44056 DUCK FRF   1500      79                N/A     2/ 8
OREGON INLET NC  1442   78 82   50/  5/  7 1018.0R
HATTERAS NC      1442   81 83  350/  4/  5 1018.1R
DIAMOND SHLS NC  1450   79 82   20/  4/  8 1017.9S   2/ 7   2/ 7
CAPE LOOKOUT NC  1500   82     110/  4/  4 1017.8R
$$




USA.gov is the U.S. government's official web portal to all federal, state and local government web resources and services.